Home   Weather   Milton Keynes   Past weeks
Flag for United Kingdom

Past Weather in Milton Keynes, England, United Kingdom — Yesterday and Last 2 Weeks

Now
52 °F

Partly sunny.


Feels Like: 49 °F
Forecast: N/A
Wind: 7 mph from Northwest

Location: Cranfield

Current Time: Mar 26, 2019 at 2:39:54 pm

Latest Report: Mar 26, 2019 at 2:20 pm


Visibility: N/A

Pressure: 30.48 "Hg

Humidity: 58%

Dew Point: 37 °F

Location of Milton KeynesLocation

Past Weather in Milton Keynes — Graph

°F

Milton Keynes Temperature Yesterday

Maximum temperature yesterday: 54 °F (at 2:20 pm)
Minimum temperature yesterday: 43 °F (at 7:50 am)
Average temperature yesterday: 50 °F

High & Low Weather Summary for the Past Weeks

 TemperatureHumidityPressure
High57 °F (Mar 15, 10:20 am)100% (Mar 12, 11:50 am)30.54 "Hg (Mar 12, 11:50 am)
Low37 °F (Mar 26, 7:20 am)46% (Mar 11, 1:50 pm)29.45 "Hg (Mar 12, 11:20 am)
Average50 °F77%30.10 "Hg
* Reported Mar 11 1:20 pm — Mar 26 1:20 pm, Milton Keynes. Weather by CustomWeather, © 2019

Note: Actual official high and low records may vary slightly from our data, if they occured in-between our weather recording intervals... More about our weather records

Advertising

Milton Keynes Weather History for the Previous 24 Hours

Scroll right to see more
 ConditionsComfort  
Time TempWeatherWind HumidityBarometerVisibility
1:20 pm
Tue, Mar 26
52 °FPartly sunny.9 mph58%30.51 "HgN/A
12:20 pm52 °FPartly sunny.7 mph62%30.51 "HgN/A
11:50 am52 °FPartly sunny.8 mph62%30.51 "HgN/A
11:20 am54 °FPartly sunny.8 mph63%30.51 "HgN/A
10:50 am50 °FScattered clouds.8 mph71%30.54 "HgN/A
10:20 am50 °FPassing clouds.7 mph67%30.54 "HgN/A
9:50 am48 °FPassing clouds.8 mph76%30.54 "HgN/A
9:20 am46 °FPassing clouds.9 mph82%30.54 "Hg5 mi
8:50 am46 °FScattered clouds.7 mph82%30.54 "Hg5 mi
8:20 am43 °FFog.7 mph93%30.54 "Hg2 mi
7:50 am39 °FFog.8 mph100%30.54 "Hg1 mi
7:20 am37 °FFog.9 mph100%30.54 "Hg1 mi
5:50 pm
Mon, Mar 25
48 °FPassing clouds.8 mph62%30.51 "HgN/A
5:20 pm52 °FPassing clouds.8 mph54%30.48 "HgN/A
4:50 pm52 °FPassing clouds.8 mph50%30.48 "HgN/A
4:20 pm52 °FPassing clouds.9 mph54%30.48 "HgN/A
3:50 pm52 °FPassing clouds.14 mph54%30.48 "HgN/A
3:20 pm54 °FPassing clouds.8 mph51%30.48 "HgN/A
2:50 pm52 °FPassing clouds.12 mph58%30.48 "HgN/A
2:20 pm54 °FPassing clouds.12 mph51%30.48 "HgN/A
Weather by CustomWeather, © 2019

See weather overview